FW6257 Weather Reports


time (UTC)temp
F
wind
direction
speed
knots
gust
knots
rain 1hr
in
rain 24hr
in
rain mn
in
humidity
%
barometer
mb
20260504034512 61 288 0.9 3.5 0.00 0.06 0.06 31 975.3
20260504034006 61 288 1.7 3.5 0.00 0.06 0.06 30 975.3
20260504033459 62 289 1.7 3.5 0.00 0.06 0.06 30 975.4
20260504032447 62 290 0.9 1.7 0.00 0.06 0.06 30 975.3
20260504031941 62 290 0.0 1.7 0.00 0.06 0.06 29 975.3
20260504030928 62 290 0.9 3.5 0.00 0.06 0.06 29 975.4
20260504030422 63 290 1.7 3.5 0.00 0.06 0.06 29 975.3
20260504025917 63 290 0.9 2.6 0.00 0.06 0.06 29 975.3
20260504025410 63 291 0.9 2.6 0.00 0.06 0.06 29 975.2
20260504024359 64 291 0.9 1.7 0.00 0.06 0.06 28 975.1
20260504023853 64 291 0.9 2.6 0.00 0.06 0.06 28 975.0
20260504023347 64 291 0.9 2.6 0.00 0.06 0.06 28 974.9
20260504022841 64 291 0.9 2.6 0.00 0.06 0.06 27 974.9
20260504022335 64 291 0.9 1.7 0.00 0.06 0.06 27 974.9
20260504021322 65 291 0.9 2.6 0.00 0.06 0.06 28 975.0
20260504020816 65 291 0.9 2.6 0.00 0.06 0.06 27 975.0
20260504020311 65 291 0.9 2.6 0.00 0.06 0.06 28 974.9
20260504015805 66 291 0.9 1.7 0.00 0.06 0.06 27 974.9
20260504015259 66 291 0.9 2.6 0.00 0.06 0.06 27 974.9
20260504014246 67 291 0.9 2.6 0.00 0.06 0.06 26 974.9
20260504013741 67 291 1.7 2.6 0.00 0.06 0.06 26 974.9
20260504013234 67 291 1.7 2.6 0.00 0.06 0.06 26 974.9
20260504012224 68 292 1.7 4.3 0.00 0.06 0.06 26 974.9
20260504011718 68 291 0.9 2.6 0.00 0.06 0.06 26 974.7
20260504011212 68 291 0.9 1.7 0.00 0.06 0.06 25 974.5
20260504010705 69 291 0.9 1.7 0.00 0.06 0.06 25 974.3
20260504010158 69 291 0.9 0.9 0.00 0.06 0.06 25 974.2
20260504005653 69 291 0.9 1.7 0.00 0.06 0.06 24 974.2
20260504005146 70 291 0.9 2.6 0.00 0.06 0.06 23 974.3
20260504004647 70 291 0.9 2.6 0.00 0.06 0.06 23 974.2
20260504004145 70 291 1.7 4.3 0.00 0.06 0.06 22 974.2
20260504003144 71 289 2.6 6.1 0.00 0.06 0.06 21 974.1
20260504002645 71 285 2.6 6.1 0.00 0.06 0.06 21 974.0
20260504001647 72 298 2.6 7.8 0.00 0.06 0.06 20 974.0
20260504000647 72 263 3.5 8.7 0.00 0.06 0.06 18 973.9
20260504000147 72 278 3.5 7.8 0.00 0.06 0.06 18 973.9
20260503235644 73 307 4.3 11.3 0.00 0.06 0.06 19 973.9
20260503235143 73 299 5.2 11.3 0.00 0.06 0.06 18 973.8
20260503234645 73 273 5.2 11.3 0.00 0.06 0.06 19 973.8
20260503234140 74 261 5.2 9.6 0.00 0.06 0.06 18 973.8
20260503233140 74 270 6.1 11.3 0.00 0.06 0.06 18 973.9
20260503232641 74 281 6.1 11.3 0.00 0.06 0.06 18 973.9
20260503232141 74 298 5.2 10.4 0.00 0.06 0.06 18 974.0
20260503231642 74 310 6.1 13.0 0.00 0.06 0.06 18 974.0
20260503231137 74 292 7.0 13.0 0.00 0.06 0.06 17 974.1
20260503230637 74 313 7.0 13.0 0.00 0.06 0.06 17 973.9
20260503230136 74 284 7.8 15.6 0.00 0.06 0.06 18 973.9
20260503225636 74 323 7.0 15.6 0.00 0.06 0.06 18 973.9
20260503225136 74 279 5.2 9.6 0.00 0.06 0.06 22 973.9
20260503224636 75 259 5.2 12.2 0.00 0.06 0.06 22 973.8
20260503224136 74 277 6.1 12.2 0.00 0.06 0.06 22 973.9
20260503223136 75 266 5.2 10.4 0.00 0.06 0.06 21 973.8
20260503222636 75 248 5.2 10.4 0.00 0.06 0.06 21 973.8
20260503222134 75 252 5.2 10.4 0.00 0.06 0.06 21 973.8
20260503221634 74 284 5.2 10.4 0.00 0.06 0.06 21 973.8
20260503221134 74 274 6.1 13.0 0.00 0.06 0.06 20 973.8
20260503220634 74 263 7.0 13.9 0.00 0.06 0.06 20 973.8
20260503220136 74 271 7.0 13.9 0.00 0.06 0.06 21 973.8
20260503215634 74 300 6.1 13.0 0.00 0.06 0.06 21 973.8
20260503215134 74 325 7.0 13.0 0.00 0.06 0.06 19 973.8
20260503214634 75 273 6.1 13.0 0.00 0.06 0.06 20 973.8
20260503214134 75 311 6.1 11.3 0.00 0.06 0.06 22 973.9
20260503213134 74 300 5.2 11.3 0.00 0.06 0.06 22 973.9
20260503212634 75 272 6.1 13.9 0.00 0.06 0.06 22 973.9
20260503212134 75 230 5.2 13.9 0.00 0.06 0.06 21 973.8
20260503211634 75 259 5.2 12.2 0.00 0.06 0.06 23 973.9
20260503211134 74 309 6.1 12.2 0.00 0.06 0.06 23 973.7
20260503210635 75 244 4.3 10.4 0.00 0.06 0.06 23 973.7
20260503210128 75 251 4.3 10.4 0.00 0.06 0.06 24 973.8
20260503205622 74 227 5.2 12.2 0.00 0.06 0.06 23 973.8
20260503205116 74 272 6.1 12.2 0.00 0.06 0.06 23 974.1
20260503204610 74 277 5.2 12.2 0.00 0.06 0.06 24 974.2
20260503204104 74 267 5.2 13.9 0.00 0.06 0.06 24 974.2
20260503203557 74 275 6.1 13.9 0.00 0.06 0.06 25 974.2
20260503203052 73 240 6.1 13.9 0.00 0.06 0.06 26 974.4
20260503202546 74 248 6.1 13.9 0.00 0.06 0.06 26 974.5
20260503202039 73 229 5.2 10.4 0.00 0.06 0.06 26 974.5
20260503201533 73 260 5.2 10.4 0.00 0.06 0.06 26 974.6
20260503201027 73 265 6.1 11.3 0.00 0.06 0.06 26 974.7
20260503200015 73 236 5.2 11.3 0.00 0.06 0.06 28 974.7
20260503195509 72 220 5.2 11.3 0.00 0.06 0.06 27 974.8
20260503195003 72 273 5.2 12.2 0.00 0.06 0.06 27 975.0
20260503194457 72 254 6.1 12.2 0.00 0.06 0.06 26 975.1
20260503193951 72 209 6.1 11.3 0.00 0.06 0.06 27 975.1
20260503193446 71 256 4.3 11.3 0.00 0.06 0.06 28 975.3
20260503192939 71 270 5.2 12.2 0.00 0.06 0.06 28 975.4
20260503192433 71 238 6.1 12.2 0.00 0.06 0.06 28 975.5
20260503191927 71 240 4.3 11.3 0.00 0.06 0.06 28 975.4
20260503191421 71 218 3.5 8.7 0.00 0.06 0.06 29 975.5
20260503190916 70 262 5.2 12.2 0.00 0.06 0.06 29 975.6
20260503185904 69 243 6.1 13.0 0.00 0.06 0.06 30 975.7
20260503185358 69 230 7.0 15.6 0.00 0.06 0.06 30 975.8
20260503184345 68 240 6.1 14.8 0.00 0.06 0.06 30 975.8
20260503183839 68 202 6.1 13.0 0.00 0.06 0.06 32 975.9
20260503183333 67 185 7.0 13.9 0.00 0.06 0.06 31 976.1
20260503182827 67 245 7.0 13.9 0.00 0.06 0.06 30 976.1
20260503182322 67 221 7.8 13.9 0.00 0.06 0.06 31 976.2
20260503181309 66 212 6.1 13.9 0.00 0.06 0.06 32 976.2
20260503180804 66 257 7.0 17.4 0.00 0.06 0.06 32 976.3
20260503180258 66 239 7.0 17.4 0.00 0.06 0.06 32 976.5
20260503175752 65 254 7.0 14.8 0.00 0.06 0.06 32 976.6
20260503175245 65 203 7.0 14.8 0.00 0.06 0.06 33 976.5
20260503174739 65 224 7.0 13.9 0.00 0.06 0.06 33 976.6
20260503174234 64 233 7.0 13.9 0.00 0.06 0.06 33 976.7
20260503173728 64 204 7.8 13.0 0.00 0.06 0.06 34 976.8
20260503173222 64 218 7.8 13.0 0.00 0.06 0.06 34 976.8
20260503172716 64 240 7.8 14.8 0.00 0.06 0.06 33 976.9
20260503172210 63 248 7.8 17.4 0.00 0.06 0.06 34 976.8
20260503171703 63 215 7.0 16.5 0.00 0.06 0.06 35 976.8
20260503170652 62 253 7.8 13.9 0.00 0.06 0.06 35 977.0
20260503170146 61 219 7.8 14.8 0.00 0.06 0.06 37 976.9
20260503150524 56 192 7.0 17.4 0.00 0.06 0.06 42 978.2
20260503131017 50 175 5.2 14.8 0.00 0.06 0.06 51 979.3
20260503110343 52 237 4.3 14.8 0.02 0.02 0.02 52 981.6
20260503090118 50 217 6.1 13.9 0.00 0.00 0.00 42 981.8
20260503081525 50 213 6.1 12.2 0.00 0.00 0.00 40 981.6
20260503081018 50 181 6.1 13.0 0.00 0.00 0.00 40 981.5
20260503080515 50 221 6.1 13.0 0.00 0.00 0.00 40 981.5
20260503072014 51 207 5.2 10.4 0.00 0.00 0.00 38 981.8
20260503071514 51 190 6.1 10.4 0.00 0.00 0.00 38 982.0
20260503071014 51 206 5.2 9.6 0.00 0.00 0.00 38 982.0
20260503054918 51 209 4.3 9.6 0.00 0.00 0.00 37 982.7
20260503054418 51 241 4.3 7.8 0.00 0.00 0.00 37 982.7
20260503053918 51 215 4.3 9.6 0.00 0.00 0.00 36 982.7
20260503053418 51 182 5.2 9.6 0.00 0.00 0.00 36 982.7
20260503052919 51 211 5.2 10.4 0.00 0.00 0.00 36 982.8
20260503052418 51 215 5.2 10.4 0.00 0.00 0.00 36 982.7
20260503051919 51 215 5.2 9.6 0.00 0.00 0.00 36 982.8
20260503051419 51 218 5.2 10.4 0.00 0.00 0.00 36 982.9
20260503050918 51 215 4.3 10.4 0.00 0.00 0.00 35 982.9
20260503050418 51 209 5.2 8.7 0.00 0.00 0.00 36 982.9
20260503045918 51 209 5.2 9.6 0.00 0.00 0.00 35 982.9
20260503045419 51 259 5.2 9.6 0.00 0.00 0.00 35 983.0
20260503044419 51 217 5.2 10.4 0.00 0.00 0.00 35 983.0
20260503043917 51 219 5.2 10.4 0.00 0.00 0.00 35 983.0
20260503043415 51 219 5.2 8.7 0.00 0.00 0.00 35 983.0
20260503042915 51 205 5.2 8.7 0.00 0.00 0.00 34 983.0
20260503042415 52 222 5.2 9.6 0.00 0.00 0.00 34 983.1
20260503041918 52 206 5.2 9.6 0.00 0.00 0.00 34 983.2
20260503041415 52 201 4.3 8.7 0.00 0.00 0.00 34 983.3
20260503040916 52 231 4.3 8.7 0.00 0.00 0.00 34 983.4
20260503035915 52 204 5.2 12.2 0.00 0.00 0.00 33 983.5